• In Hungary
  • List of Countries
  • For 7 days
  • Water Temperature
  • Satellite Maps
  • Weather Map
  • News
  • Weather Widgets
  • user-avatar
    Login

    Hourly Weather Oklahoma City

    Today, 11 December, Monday

    Time Temperature Precipitation Wind Pressure Humidity
    00:00 +10°C° 0 mm 3 mps 734 mmHg 23%
    01:00 +10°C° 0 mm 3 mps 734 mmHg 22%
    02:00 +10°C° 0 mm 3 mps 733 mmHg 22%
    03:00 +9°C° 0 mm 3 mps 733 mmHg 22%
    04:00 +9°C° 0 mm 3 mps 733 mmHg 23%
    05:00 +9°C° 0 mm 3 mps 733 mmHg 24%
    06:00 +9°C° 0 mm 3 mps 733 mmHg 25%
    07:00 +10°C° 0 mm 3 mps 733 mmHg 27%
    08:00 +10°C° 0 mm 3 mps 733 mmHg 28%
    09:00 +13°C° 0 mm 4 mps 733 mmHg 27%
    10:00 +15°C° 0 mm 4 mps 732 mmHg 25%
    11:00 +17°C° 0 mm 5 mps 732 mmHg 23%
    12:00 +17°C° 0 mm 5 mps 732 mmHg 23%
    13:00 +19°C° 0 mm 5 mps 732 mmHg 23%
    14:00 +19°C° 0 mm 6 mps 732 mmHg 23%
    15:00 +16°C° 0 mm 5 mps 732 mmHg 27%
    16:00 +14°C° 0 mm 4 mps 732 mmHg 31%
    17:00 +12°C° 0 mm 3 mps 732 mmHg 35%
    18:00 +11°C° 0 mm 4 mps 733 mmHg 35%
    19:00 +10°C° 0 mm 5 mps 734 mmHg 35%
    20:00 +9°C° 0 mm 6 mps 735 mmHg 35%
    21:00 +8°C° 0 mm 5 mps 736 mmHg 39%
    22:00 +7°C° 0 mm 5 mps 736 mmHg 43%
    23:00 +6°C° 0 mm 5 mps 737 mmHg 48%

    Tomorrow, 12 December, Tuesday

    Time Temperature Precipitation Wind Pressure Humidity
    00:00 +5°C° 0 mm 5 mps 737 mmHg 51%
    01:00 +3°C° 0 mm 5 mps 738 mmHg 53%
    02:00 +4°C° 0 mm 4 mps 738 mmHg 56%
    03:00 +3°C° 0 mm 4 mps 738 mmHg 59%
    04:00 +1°C° 0 mm 4 mps 738 mmHg 62%
    05:00 +1°C° 0 mm 4 mps 738 mmHg 64%
    06:00 +1°C° 0 mm 4 mps 739 mmHg 62%
    07:00 +1°C° 0 mm 4 mps 739 mmHg 60%
    08:00 +2°C° 0 mm 5 mps 739 mmHg 58%
    09:00 +4°C° 0 mm 4 mps 739 mmHg 53%
    10:00 +6°C° 0 mm 4 mps 739 mmHg 48%
    11:00 +8°C° 0 mm 4 mps 739 mmHg 42%
    12:00 +10°C° 0 mm 4 mps 738 mmHg 40%
    13:00 +10°C° 0 mm 4 mps 737 mmHg 38%
    14:00 +11°C° 0 mm 4 mps 736 mmHg 36%
    15:00 +10°C° 0 mm 3 mps 735 mmHg 39%
    16:00 +9°C° 0 mm 2 mps 734 mmHg 42%
    17:00 +8°C° 0 mm 2 mps 734 mmHg 45%
    18:00 +7°C° 0 mm 2 mps 733 mmHg 46%
    19:00 +7°C° 0 mm 3 mps 733 mmHg 46%
    20:00 +7°C° 0 mm 3 mps 733 mmHg 46%
    21:00 +6°C° 0 mm 4 mps 732 mmHg 45%
    22:00 +6°C° 0 mm 4 mps 732 mmHg 44%
    23:00 +6°C° 0 mm 4 mps 731 mmHg 43%

    Day after tomorrow, 13 December, Wednesday

    Time Temperature Precipitation Wind Pressure Humidity
    00:00 +5°C° 0 mm 4 mps 731 mmHg 42%
    01:00 +5°C° 0 mm 4 mps 731 mmHg 41%
    02:00 +5°C° 0 mm 4 mps 730 mmHg 41%
    03:00 +5°C° 0 mm 4 mps 730 mmHg 39%
    04:00 +5°C° 0 mm 4 mps 729 mmHg 38%
    05:00 +5°C° 0 mm 4 mps 729 mmHg 37%
    06:00 +6°C° 0 mm 4 mps 729 mmHg 36%
    07:00 +6°C° 0 mm 4 mps 729 mmHg 35%
    08:00 +7°C° 0 mm 5 mps 729 mmHg 34%
    09:00 +10°C° 0 mm 5 mps 729 mmHg 32%
    10:00 +13°C° 0 mm 5 mps 728 mmHg 29%
    11:00 +16°C° 0 mm 5 mps 728 mmHg 27%
    12:00 +17°C° 0 mm 4 mps 728 mmHg 26%
    13:00 +18°C° 0 mm 4 mps 727 mmHg 26%
    14:00 +19°C° 0 mm 3 mps 727 mmHg 25%
    15:00 +17°C° 0 mm 3 mps 726 mmHg 29%
    16:00 +15°C° 0 mm 2 mps 726 mmHg 33%
    17:00 +13°C° 0 mm 2 mps 726 mmHg 38%
    18:00 +12°C° 0 mm 2 mps 726 mmHg 38%
    19:00 +12°C° 0 mm 2 mps 727 mmHg 39%
    20:00 +11°C° 0 mm 1 mps 727 mmHg 40%
    21:00 +10°C° 0 mm 2 mps 727 mmHg 40%
    22:00 +9°C° 0 mm 3 mps 727 mmHg 40%
    23:00 +9°C° 0 mm 3 mps 727 mmHg 40%

    14 December, Thursday

    Time Temperature Precipitation Wind Pressure Humidity
    00:00 +8°C° 0 mm 3 mps 727 mmHg 42%
    01:00 +6°C° 0 mm 4 mps 727 mmHg 44%
    02:00 +5°C° 0 mm 4 mps 727 mmHg 46%
    03:00 +5°C° 0 mm 4 mps 727 mmHg 48%
    04:00 +4°C° 0 mm 4 mps 728 mmHg 51%
    05:00 +4°C° 0 mm 4 mps 728 mmHg 53%
    06:00 +4°C° 0 mm 4 mps 728 mmHg 53%
    07:00 +5°C° 0 mm 4 mps 729 mmHg 53%
    08:00 +6°C° 0 mm 5 mps 730 mmHg 53%
    09:00 +7°C° 0 mm 5 mps 730 mmHg 49%
    10:00 +9°C° 0 mm 5 mps 730 mmHg 45%
    11:00 +12°C° 0 mm 5 mps 730 mmHg 41%
    12:00 +12°C° 0 mm 5 mps 730 mmHg 39%
    13:00 +13°C° 0 mm 5 mps 729 mmHg 36%
    14:00 +13°C° 0 mm 6 mps 729 mmHg 34%
    15:00 +12°C° 0 mm 5 mps 729 mmHg 37%
    16:00 +10°C° 0 mm 4 mps 729 mmHg 40%
    17:00 +9°C° 0 mm 3 mps 730 mmHg 44%
    18:00 +8°C° 0 mm 3 mps 730 mmHg 47%
    19:00 +7°C° 0 mm 3 mps 731 mmHg 50%
    20:00 +7°C° 0 mm 2 mps 731 mmHg 53%
    21:00 +5°C° 0 mm 3 mps 732 mmHg 55%
    22:00 +5°C° 0 mm 4 mps 732 mmHg 57%
    23:00 +4°C° 0 mm 4 mps 733 mmHg 58%

    15 December, Friday

    Time Temperature Precipitation Wind Pressure Humidity
    00:00 +4°C° 0 mm 4 mps 733 mmHg 57%
    01:00 +3°C° 0 mm 4 mps 733 mmHg 56%
    02:00 +1°C° 0 mm 4 mps 734 mmHg 55%
    03:00 +1°C° 0 mm 4 mps 734 mmHg 57%
    04:00 +1°C° 0 mm 3 mps 734 mmHg 58%
    05:00 0°C° 0 mm 3 mps 734 mmHg 60%
    06:00 +1°C° 0 mm 3 mps 734 mmHg 57%
    07:00 +2°C° 0 mm 3 mps 734 mmHg 55%
    08:00 +2°C° 0 mm 3 mps 735 mmHg 52%
    09:00 +4°C° 0 mm 3 mps 734 mmHg 46%
    10:00 +7°C° 0 mm 3 mps 734 mmHg 40%
    11:00 +9°C° 0 mm 3 mps 734 mmHg 35%
    12:00 +10°C° 0 mm 4 mps 733 mmHg 33%
    13:00 +11°C° 0 mm 4 mps 732 mmHg 32%
    14:00 +12°C° 0 mm 5 mps 731 mmHg 31%
    15:00 +10°C° 0 mm 5 mps 730 mmHg 34%
    16:00 +9°C° 0 mm 5 mps 730 mmHg 38%
    17:00 +7°C° 0 mm 5 mps 729 mmHg 41%
    18:00 +7°C° 0 mm 5 mps 729 mmHg 41%
    19:00 +7°C° 0 mm 6 mps 728 mmHg 40%
    20:00 +6°C° 0 mm 7 mps 728 mmHg 40%
    21:00 +6°C° 0 mm 7 mps 728 mmHg 40%
    22:00 +7°C° 0 mm 8 mps 727 mmHg 39%
    23:00 +7°C° 0 mm 8 mps 727 mmHg 39%

    16 December, Saturday

    Time Temperature Precipitation Wind Pressure Humidity
    00:00 +7°C° 0 mm 8 mps 726 mmHg 41%
    01:00 +7°C° 0 mm 8 mps 726 mmHg 42%
    02:00 +7°C° 0 mm 8 mps 725 mmHg 43%
    03:00 +7°C° 0 mm 8 mps 725 mmHg 43%
    04:00 +7°C° 0 mm 8 mps 724 mmHg 44%
    05:00 +7°C° 0 mm 8 mps 724 mmHg 44%
    06:00 +7°C° 0 mm 9 mps 723 mmHg 43%
    07:00 +8°C° 0 mm 9 mps 723 mmHg 43%
    08:00 +9°C° 0 mm 10 mps 723 mmHg 42%
    09:00 +11°C° 0 mm 11 mps 722 mmHg 41%
    10:00 +13°C° 0 mm 11 mps 722 mmHg 39%
    11:00 +14°C° 0 mm 12 mps 721 mmHg 38%
    12:00 +17°C° 0 mm 12 mps 720 mmHg 37%
    13:00 +18°C° 0 mm 12 mps 720 mmHg 36%
    14:00 +19°C° 0 mm 12 mps 719 mmHg 36%
    15:00 +18°C° 0 mm 11 mps 719 mmHg 40%
    16:00 +17°C° 0 mm 11 mps 719 mmHg 43%
    17:00 +16°C° 0 mm 10 mps 719 mmHg 47%
    18:00 +16°C° 0 mm 11 mps 719 mmHg 49%
    19:00 +16°C° 0 mm 11 mps 718 mmHg 51%
    20:00 +16°C° 0 mm 11 mps 718 mmHg 53%
    21:00 +16°C° 0 mm 11 mps 718 mmHg 54%
    22:00 +16°C° 0 mm 11 mps 718 mmHg 55%
    23:00 +16°C° 0 mm 11 mps 718 mmHg 57%
    Show more